Theta_e
347 358 366 367 366 367 365 364 363 362 362 362 363 363 362 363 363 363 362 362 362 361 359 359 357 355 352 351 351 354 356 356 355 354 354 355 354 353 353 353 355 349 353
349 358 364 366 366 367 365 364 363 362 361 362 363 362 362 362 363 363 362 362 361 358 357 355 352 349 346 344 343 347 349 352 353 353 354 354 354 352 352 353 354 350 351
349 357 360 365 366 367 365 364 363 361 361 362 362 362 362 362 363 363 361 361 359 357 354 351 347 344 340 337 337 341 340 341 345 351 354 348 347 352 350 350 350 351 350
350 357 357 364 365 366 365 364 362 361 361 361 362 362 362 362 362 362 361 361 358 355 351 347 344 341 339 337 337 338 339 339 342 345 339 345 341 350 350 350 350 349 348
352 355 359 363 364 365 365 364 362 361 361 362 362 362 362 363 362 361 360 360 357 352 349 345 344 343 341 339 339 341 341 341 344 340 332 341 341 347 352 352 350 349 348
351 350 360 362 363 364 365 364 363 363 362 362 362 362 362 362 362 360 360 359 357 353 349 347 346 345 344 342 343 343 343 345 347 335 337 339 342 351 352 351 349 350 349
349 350 358 361 363 364 365 364 363 363 363 362 362 362 363 362 361 359 359 358 356 353 351 348 347 347 347 346 345 345 346 346 339 338 343 343 344 351 351 350 350 348 348
347 354 358 360 362 362 363 363 362 363 363 363 363 363 362 361 360 359 358 357 356 353 351 350 348 348 348 348 347 347 347 346 340 339 340 344 345 350 352 351 351 351 349
346 357 359 356 360 362 361 361 361 361 362 362 361 361 360 360 358 357 357 356 355 353 352 351 350 349 348 348 348 348 348 346 342 338 340 341 349 350 350 353 351 352 351
343 358 358 354 353 357 359 361 360 360 360 359 359 359 359 358 357 356 354 354 354 353 353 352 351 350 349 349 348 348 347 346 340 335 333 342 350 351 350 352 352 351 351
339 356 355 349 353 353 354 358 359 359 359 358 358 358 355 353 353 352 351 353 354 353 353 352 351 350 350 349 348 349 346 339 335 335 336 350 351 351 349 350 352 352 352
337 343 352 348 350 350 347 355 355 356 356 356 355 355 353 350 350 345 350 353 354 353 353 352 352 351 348 338 337 347 341 337 333 333 334 350 349 349 347 349 351 353 353
340 342 351 350 353 349 346 354 352 351 351 352 352 353 352 348 349 348 349 346 350 352 344 347 345 343 337 335 334 336 337 336 334 333 341 349 349 350 347 349 351 353 353
340 344 350 353 353 352 348 350 352 347 349 349 350 354 355 350 351 353 347 347 347 347 345 342 340 340 339 339 338 337 339 339 336 337 344 350 349 351 349 348 350 353 353
332 342 346 353 357 355 360 354 352 346 348 349 352 354 352 352 351 353 354 351 351 349 346 344 342 345 342 342 341 341 339 339 341 340 339 351 349 349 351 349 349 351 353
334 339 344 354 359 359 364 367 365 353 349 350 352 352 355 354 355 355 356 354 351 352 349 346 346 346 344 342 342 343 342 342 343 343 341 344 348 347 349 351 351 351 352
333 339 344 346 357 355 355 361 362 361 357 353 353 358 354 356 357 354 354 351 350 350 352 351 349 348 344 345 344 344 346 344 344 344 345 343 343 347 347 348 350 352 353
336 335 342 341 348 353 356 355 357 357 356 358 357 358 358 356 359 360 353 350 350 353 350 346 345 342 341 340 340 340 344 345 344 347 345 345 344 343 345 347 348 348 352
334 336 337 340 348 352 350 353 354 353 352 353 351 355 356 358 356 354 352 350 354 349 349 347 343 341 340 342 339 345 348 347 348 347 347 347 347 346 344 345 346 346 349
334 336 337 340 344 353 349 348 347 348 349 348 345 347 351 352 355 354 352 353 355 348 345 343 340 343 342 341 340 341 348 348 349 348 348 350 346 348 344 344 342 342 346
333 336 338 337 339 346 351 345 344 343 345 344 347 345 347 350 351 352 351 349 351 346 344 342 341 342 340 340 344 343 346 350 348 346 350 349 346 345 345 346 344 344 344
329 334 334 338 341 337 349 353 345 344 347 344 342 341 344 350 347 348 348 347 345 343 344 344 345 337 339 344 342 342 336 339 344 347 346 345 347 345 344 346 346 347 347
328 329 328 334 334 338 342 340 347 349 350 347 350 343 341 341 345 345 347 344 347 345 340 346 344 343 336 342 347 342 333 330 339 345 345 345 345 346 344 344 345 345 348
323 328 332 332 337 331 336 339 340 338 335 336 334 350 351 347 342 344 345 345 345 341 345 345 344 341 343 340 345 348 347 343 333 333 343 344 345 345 345 345 343 344 345
322 325 330 331 334 335 332 335 337 337 335 337 342 342 343 350 346 345 346 343 342 344 340 344 341 344 346 344 341 344 344 343 343 337 332 336 340 342 345 345 341 343 343
319 321 325 330 335 337 338 334 334 336 337 335 336 338 340 344 346 350 345 346 345 346 344 341 345 347 347 345 341 346 344 340 337 338 336 334 333 338 341 344 343 339 341
Wind_Speed
15 17 16 18 18 17 16 16 16 16 15 14 14 14 12 13 13 13 13 12 11 11 10 10 8 8 7 9 9 8 8 8 7 7 8 9 9 8 7 7 8 9 8
21 18 15 18 19 17 14 16 16 16 16 15 14 14 13 13 13 12 12 11 10 10 9 8 7 7 6 7 7 6 7 6 4 4 7 8 8 5 6 7 11 8 7
19 16 16 16 18 18 14 14 15 15 15 15 14 14 13 13 12 12 12 11 11 10 8 8 7 6 5 5 5 4 4 2 3 5 7 6 8 6 4 4 7 6 5
19 15 15 14 18 18 15 12 14 15 15 15 14 14 13 13 12 12 12 11 10 9 8 7 6 6 4 4 4 2 1 3 7 7 6 9 8 9 6 4 5 4 3
17 15 14 14 18 18 17 13 12 14 14 15 15 14 14 13 12 11 11 10 10 9 8 7 7 6 6 4 3 1 2 6 9 9 9 2 4 8 7 6 5 5 3
20 17 19 16 17 19 19 15 12 12 14 15 14 14 14 13 13 12 10 9 9 8 8 7 6 5 6 5 4 3 5 8 9 9 9 4 8 11 8 6 4 6 5
17 18 18 17 15 18 19 17 13 12 11 12 12 12 12 12 12 11 10 8 7 7 7 7 6 4 3 3 4 4 6 8 8 10 7 5 8 11 9 6 4 4 4
14 19 17 19 13 16 17 18 15 12 11 11 10 11 11 10 10 10 10 9 8 7 7 6 6 4 4 4 4 5 7 10 10 10 8 3 11 12 10 7 5 4 4
15 19 15 15 13 12 12 15 16 13 12 12 11 10 10 10 9 10 9 8 7 7 6 7 6 6 6 6 6 7 8 11 8 9 11 3 11 10 10 8 6 6 5
14 20 16 14 14 12 11 12 13 14 13 12 11 10 10 10 9 9 9 7 7 7 7 7 7 6 7 6 7 7 9 12 9 10 8 4 14 12 10 8 8 7 6
10 19 16 16 14 12 12 11 14 15 15 14 11 10 9 6 8 10 10 11 11 9 8 7 6 7 8 9 10 11 12 6 8 8 7 14 12 11 11 9 8 9 9
8 18 18 16 14 13 11 13 10 10 8 8 9 10 6 7 7 10 11 12 13 10 8 7 7 7 8 6 6 15 6 9 7 8 4 14 13 13 12 10 9 11 11
8 5 18 15 14 12 10 10 6 6 6 7 9 8 8 6 5 6 4 6 5 9 5 8 7 6 9 7 8 6 10 10 7 6 5 14 13 12 12 10 10 11 12
3 7 12 15 14 12 7 9 10 8 8 7 9 9 6 5 5 4 4 7 8 6 8 6 6 9 11 10 10 9 7 5 3 2 3 13 11 11 11 12 11 11 12
4 6 10 12 11 10 6 5 9 9 8 9 9 10 7 7 5 5 4 5 7 7 9 8 8 8 10 11 10 6 6 6 5 3 1 13 12 12 12 13 13 13 12
6 5 8 2 9 7 2 3 2 6 8 8 7 10 11 7 6 5 5 3 4 4 6 9 8 7 6 5 5 7 7 6 5 4 4 5 14 13 14 14 15 15 14
5 4 3 5 6 7 8 2 0 3 1 5 6 9 13 9 7 6 5 5 5 5 7 4 3 2 3 2 3 5 5 6 5 6 5 4 5 14 14 15 15 15 15
4 3 0 0 5 7 6 5 3 1 3 2 3 4 11 10 6 5 5 5 6 5 4 3 3 4 4 5 4 5 6 6 7 6 6 5 5 5 13 15 17 17 16
6 5 3 5 2 8 6 7 5 5 3 2 4 3 7 11 12 7 5 5 5 4 3 4 4 4 3 3 5 7 5 5 5 5 7 7 7 6 4 12 17 16 15
7 3 4 3 5 3 7 5 6 6 5 5 6 4 7 9 11 10 7 5 5 3 3 1 4 2 3 5 8 6 5 5 5 5 6 5 6 6 6 5 6 8 16
5 4 5 3 7 3 4 7 5 5 4 5 4 7 7 5 7 7 8 6 4 4 4 4 3 6 6 7 5 5 6 7 7 6 5 5 6 6 6 5 5 6 7
6 2 2 5 3 5 4 1 3 5 7 8 8 9 5 5 8 9 10 6 7 5 4 6 6 5 5 7 4 4 4 4 8 7 4 4 6 5 6 8 9 8 6
6 7 6 4 5 7 2 3 1 2 1 4 4 3 9 11 11 13 13 11 8 7 7 8 8 9 9 6 11 6 4 4 2 2 6 4 6 4 5 5 6 6 6
5 6 6 4 1 5 5 4 6 4 5 6 12 3 5 12 16 9 12 11 12 8 10 11 11 11 8 9 7 13 8 2 1 3 1 6 5 5 5 3 5 5 5
4 4 3 6 5 5 6 7 2 4 3 3 3 9 8 6 10 13 12 16 12 12 15 13 13 11 7 3 5 18 7 3 5 5 6 3 3 4 5 5 5 3 5
8 6 3 3 3 3 4 4 7 6 5 3 3 3 3 4 6 13 15 9 8 10 13 11 10 7 8 7 14 19 6 5 4 4 5 5 5 4 4 5 5 5 4
Wind_Direction
126 140 142 133 133 137 143 143 140 135 133 131 130 125 117 115 111 111 110 107 108 108 108 105 104 99 89 81 81 80 82 80 85 97 102 101 91 74 65 40 339 95 94
131 145 145 137 136 139 147 145 142 140 137 140 139 130 127 123 122 122 120 118 113 110 114 110 113 107 103 100 96 97 95 101 120 136 134 130 113 90 70 58 55 92 98
128 143 151 143 138 140 148 149 146 143 143 146 140 133 134 133 134 131 127 126 127 128 126 124 124 113 110 105 106 104 104 119 220 216 199 193 125 125 104 96 94 105 108
133 142 152 152 141 140 142 150 149 147 147 147 142 139 141 137 141 139 139 139 135 138 138 136 131 123 120 111 103 91 90 263 266 263 244 235 132 143 131 132 121 125 133
135 148 149 158 144 143 140 145 154 151 153 150 147 147 145 147 145 141 142 141 146 149 151 152 149 145 141 130 123 164 244 259 268 272 255 36 97 142 144 143 151 167 162
143 155 145 157 153 148 145 148 151 157 156 154 152 153 149 152 147 145 148 150 155 157 162 166 160 162 156 155 171 218 252 269 289 279 259 109 105 151 149 150 112 111 143
150 156 154 154 161 150 148 148 152 153 156 152 152 153 149 153 151 148 148 150 160 165 173 170 168 175 177 185 212 240 265 280 284 283 290 152 116 157 148 156 160 170 168
158 137 150 152 163 156 154 150 149 148 147 145 146 150 149 152 151 149 151 160 171 174 180 180 173 186 210 227 237 251 270 282 293 287 288 135 153 164 155 170 192 192 201
150 132 143 159 159 154 154 149 146 141 138 135 137 142 146 152 154 153 156 170 178 177 191 189 182 200 213 231 248 268 277 287 293 291 296 192 153 160 163 178 207 210 207
161 131 141 159 170 173 158 147 141 138 135 135 140 146 146 150 157 159 163 181 189 197 200 203 193 209 227 233 246 260 275 288 280 278 282 159 157 162 173 189 205 224 214
183 135 142 162 166 185 165 158 142 146 140 139 145 151 149 188 179 177 193 188 193 200 212 212 212 211 229 235 235 233 240 243 255 254 258 144 156 167 175 183 215 224 223
218 156 143 159 168 183 178 156 171 168 173 174 176 170 193 208 187 202 193 195 190 196 208 219 224 224 235 247 226 223 221 232 242 264 263 157 171 174 181 188 210 223 223
292 186 144 155 159 185 198 148 170 178 184 187 189 178 187 203 221 194 191 175 182 195 204 204 212 223 235 230 244 198 208 222 229 241 212 166 177 184 184 190 209 220 222
322 311 137 152 157 176 199 161 164 184 179 181 190 187 180 210 205 206 183 187 189 185 198 224 204 218 218 232 239 260 221 240 245 286 108 164 183 193 192 195 203 221 222
44 357 318 152 153 169 210 169 168 182 176 183 176 189 193 188 230 196 210 204 171 194 185 204 219 209 213 219 227 233 253 255 266 286 258 181 190 201 202 205 211 220 227
68 357 2 72 121 109 16 355 9 178 176 178 180 186 185 202 191 228 185 235 250 223 194 202 211 216 210 209 247 225 224 233 254 251 239 201 199 206 209 208 213 224 229
102 26 5 334 150 150 173 180 175 308 130 180 175 172 186 195 204 192 186 199 238 230 246 248 290 265 250 266 229 258 255 219 226 234 244 240 203 214 217 218 213 218 225
99 132 48 245 331 155 182 144 195 324 258 202 208 166 176 191 205 215 199 208 223 224 208 207 225 260 261 219 220 238 220 220 218 224 216 225 218 243 219 219 214 218 219
123 143 217 133 102 177 206 169 134 225 259 289 249 203 182 184 201 210 205 220 242 236 209 188 209 244 276 237 245 241 216 226 221 222 224 210 212 218 238 208 220 215 219
118 142 176 151 104 183 181 178 175 173 214 194 245 238 219 195 189 196 226 205 225 212 229 237 248 247 258 243 253 244 221 222 206 216 218 218 214 210 208 233 187 207 218
155 156 246 180 134 131 168 185 195 185 157 260 252 239 254 191 182 193 208 214 200 204 238 227 250 237 244 246 279 271 256 231 220 219 204 205 211 217 208 204 177 191 203
159 145 292 305 230 134 163 179 233 190 180 196 220 211 218 264 200 187 206 190 217 191 224 226 211 253 284 247 243 237 262 260 227 215 206 219 226 213 211 198 192 196 213
160 173 209 199 275 126 237 96 332 328 336 199 199 174 211 227 231 208 200 173 205 187 209 203 201 209 239 254 228 223 245 226 36 168 217 202 240 211 199 203 203 197 210
227 193 172 167 105 312 165 228 202 193 203 242 240 199 222 195 222 215 222 186 186 202 219 210 198 211 219 243 308 251 239 149 140 329 147 218 237 196 212 215 205 207 213
197 230 195 150 195 178 266 149 104 285 253 222 243 181 245 213 216 224 212 209 193 192 221 217 227 193 187 213 272 264 231 195 198 215 268 261 202 218 210 195 203 182 205
207 214 153 256 233 188 224 243 146 232 272 301 299 333 260 249 210 221 211 212 195 212 219 227 250 180 166 219 260 249 208 196 184 182 218 247 211 222 184 194 191 207 202